HORYU-4

Last updated on Wed Jul 02 2025 00:03:44 GMT+0000 (Coordinated Universal Time)

1 41340U 16012D 25182.55243013 .00017867 00000+0 46421-3 0 9991 2 41340 30.9980 344.0833 0006349 295.1626 64.8361 15.37668690516170
UTC large
Height (km)
Speed (km/s)
/
Latitude / Longitude
Inclination (degrees)
Orbital Period (minutes)
Azimuth
Elevation
Range (km)
Doppler Factor

Next 0 passes for location: London (51.5072 / 0.1276)

Sorry there are no passes over London.